Weather Roundup
Issued by NWS Corpus Christi, TX

Home | Current Version | Previous Version | Text Only | Print | Product List | Glossary On
Versions: 1 2 3 4 5 6 7 8 9 10 11 12 13 14 15 16 17 18 19 20 21 22 23 24 25 26 27 28 29 30 31 32 33 34 35 36 37 38 39 40 41 42 43 44 45 46 47 48 49 50
000
ASUS44 KCRP 160110
HRRCRP

SOUTH TEXAS REGIONAL WEATHER ROUNDUP
NATIONAL WEATHER SERVICE CORPUS CHRISTI TX
800 PM CDT MON SEP 15 2014


TXZ229>244-160200-
...CORPUS CHRISTI AREA OBSERVATIONS...

CITY           SKY/WX    TMP DP  RH WIND       PRES   REMARKS
CORPUS CHRISTI MOCLDY    83  75  77 E9        29.99S HX  90
NAS CORPUS CHR CLOUDY    84  78  82 NE10      29.99S HX  95
ROCKPORT       MOCLDY    83  77  82 E8        30.00R HX  92
KINGSVILLE NAS MOCLDY    84  76  76 E7        29.99S HX  93
ALICE          PTCLDY    84  73  69 E5        30.00R HX  90
FALFURRIAS     CLEAR     79  69  69 CALM      29.99S
$$

...VICTORIA AREA OBSERVATIONS...

CITY           SKY/WX    TMP DP  RH WIND       PRES   REMARKS
VICTORIA       MOCLDY    83  78  85 N3        30.02R HX  93
BEEVILLE       MOCLDY    85  71  61 CALM      30.01S HX  90
PLEASANTON     PTCLDY    82  67  61 NW3       30.04R
SAN ANTONIO    MOCLDY    83  67  58 E5        30.06R
$$

...LAREDO AREA OBSERVATIONS...

CITY           SKY/WX    TMP DP  RH WIND       PRES   REMARKS
LAREDO         MOCLDY    83  70  64 N5        30.05R
COTULLA        MOCLDY    82  68  62 NW3       30.03S
DEL RIO        MOCLDY    80  68  66 SE5       30.05R
MCALLEN        MOCLDY    84  72  67 N5        30.00R
HEBBRONVILLE   MOCLDY    85  68  56 E3        30.03S
$$

...OTHER TEXAS OBSERVATIONS...

CITY           SKY/WX    TMP DP  RH WIND       PRES   REMARKS
BROWNSVILLE    LGT RAIN  77  77 100 CALM      30.00R
HOUSTON        MOCLDY    83  76  79 SE7       30.03S HX  91
COL. STATION   CLOUDY    83  72  69 NE12      30.05R
AUSTIN         MOCLDY    83  70  64 NE6       30.05R
WACO           CLOUDY    78  68  71 E3        30.09R
FORT WORTH     CLOUDY    82  67  60 E5        30.09S
WICHITA FALLS  MOCLDY    80  68  66 SE8       30.09S
LUBBOCK        MOCLDY    73  63  70 S6        30.19R
EL PASO        LGT RAIN  75  62  64 E6        30.14R
$$

...MARINE OBSERVATIONS...

STATION/POSITION TIME  SKY/WX   TEMP    WIND        PRES    VSBY  WAVE   SWELL
                                AIR SEA DIR/SP/G                  HT/PER HT/PER
                 (UTC)          (F)     (DEG/KT/KT) (MB)    (MI)  (FT/S) (FT/S)
PORT ARANSAS     0100            83 84   30/ 13/ 14 1016.2F
BUOY 90 E PORT A 0100            84 85  100/ 12/ 14 1015.5R         4/ 7   3/ 7
BUOY 45 SE BAFFI 0100            83 84   40/ 12/ 14 1014.6R         5/ 7   3/ 7
BUOY 200 E PT IS 0100            84 86  180/ 10/ 12 1015.6R         3/ 5   2/ 6
BUOY 15 E GALVES 0100            84 85  100/ 12/ 14 1016.3R         3/ 5   2/ 8
$$


USA.gov is the U.S. government's official web portal to all federal, state and local government web resources and services.